User: anonymous   Login
Location: Bridgewater Hill Observatory
(43.5992°N, 72.6989°W)
Time: 11:15:05
(UTC-05:00)
Language:

Cosmos 1452 Rocket - Orbit

View from above orbital plane
View from above orbital plane
View from above satellite
View from above satellite

Ground track
Ground track

The orbit data is extracted from the following two-line orbital elements,

1 13992U 83031B   16338.18375409  .00000021  00000-0  16337-4 0  9994
2 13992  74.0538   6.6271 0004441  22.0057  39.1704 14.36065908760676
Epoch (UTC): 03 December 2016 04:24:36
Eccentricity: 0.0004441
inclination: 74.0538°
perigee height: 768 km
apogee height: 775 km
right ascension of ascending node: 6.6271°
argument of perigee: 22.0057°
revolutions per day: 14.36065908
mean anomaly at epoch: 39.1704°
orbit number at epoch: 76067

The dashed part of the orbit path shows where the satellite is in the earth's shadow,  

DLR